Regional Weather Roundup
Issued by NWS

Home | Current Version | Previous Version | Text Only | Print | Product List | Glossary On
Versions: 1 2 3 4 5 6 7 8 9 10 11 12 13 14 15 16 17 18 19 20 21 22 23 24 25 26 27 28 29 30 31 32 33 34 35 36 37 38 39 40 41 42 43 44 45 46 47 48 49 50
000
ASUS44 KMEG 281310
RWRTN
TENNESSEE HOURLY STATE WEATHER ROUNDUP
NATIONAL WEATHER SERVICE MEMPHIS TN
800 AM CDT TUE APR 28 2015

TNZ002-004-019-021-049-052-054-088>092-281400-
WEST TENNESSEE

CITY           SKY/WX    TMP DP  RH WIND       PRES   REMARKS
MEMPHIS INTL   CLOUDY    54  41  61 NE9       29.99R
NWS MEMPHIS      N/A     52 N/A N/A MISG        N/A
JACKSON        NOT AVBL
DYERSBURG      CLOUDY    52  32  46 NE12      30.03F
UNION CITY     SUNNY     46  32  57 NE9       30.03S
PARIS          SUNNY     46  39  76 NE12      30.02F
LEXINGTON      SUNNY     48  41  76 NE6       29.98S
SAVANNAH       SUNNY     48  32  53 CALM      29.99R
$$

TNZ008-025-027-028-033-062-065-066-281400-
NORTH MIDDLE TENNESSEE

CITY           SKY/WX    TMP DP  RH WIND       PRES   REMARKS
NASHVILLE      NOT AVBL
CLARKSVILLE    MOSUNNY   50  41  71 NE9       30.04R
SMYRNA         MOSUNNY   51  41  69 NE8       30.02S
COOKEVILLE     SUNNY     50  41  71 E6        29.99R
CROSSVILLE     SUNNY     48  38  68 E5        30.01R
$$

TNZ061-075-076-078-094-096-097-281400-
SOUTH MIDDLE TENNESSEE

CITY           SKY/WX    TMP DP  RH WIND       PRES   REMARKS
FAYETTEVILLE     N/A     48  39  71 NE9       29.97R
TULLAHOMA      SUNNY     48  39  71 NE7       29.99R
WINCHESTER     SUNNY     50  43  76 N3        29.99R
MCMINNVILLE    SUNNY     48  43  81 NE7       30.00R
COLUMBIA       SUNNY     48  32  53 CALM      29.98R
SHELBYVILLE    SUNNY     52  45  76 NE5       30.00R
$$

TNZ017-018-042-046-047-281400-
NORTHEAST TENNESSEE

CITY           SKY/WX    TMP DP  RH WIND       PRES   REMARKS
TRI CITIES     SUNNY     48  39  71 CALM      30.03S
ELIZABETHTON   SUNNY     43  37  81 CALM      30.02S
$$

TNZ012-013-036-069-073-074-281400-
CENTRAL EAST TENNESSEE

CITY           SKY/WX    TMP DP  RH WIND       PRES   REMARKS
KNOXVILLE      MOSUNNY   51  40  65 NE10      30.00R
OAK RIDGE      SUNNY     53  40  61 E6        30.03R
GATLINBURG     SUNNY     46  39  76 CALM      30.01R
MORRISTOWN     SUNNY     50  37  62 E10       30.02S
$$

TNZ083-085-099-281400-
SOUTHEAST TENNESSEE

CITY           SKY/WX    TMP DP  RH WIND       PRES   REMARKS
CHATTANOOGA    PTSUNNY   54  40  59 N10       29.99R
$$

SKY/WX REPORTED AS FAIR MEANS FEW OR NO CLOUDS BELOW
12 THOUSAND FEET.




USA.gov is the U.S. government's official web portal to all federal, state and local government web resources and services.